When you browse on this site, cookies collect data to enhance your experience and personalize the content and advertising you see.
Visit our Privacy Policy to learn more. By continuing to use the site, you agree to this use of cookies and data.
  • In Sweden
  • List of Countries
  • For 7 days
  • Water Temperature
  • Satellite Maps
  • Weather Map
  • Weather Widgets
  • user-avatar
    Login

    Hourly Weather Cherpessa

    Today, 23 March, Saturday

    Time Temperature Precipitation Wind Pressure Humidity
    00:00 -2°C° 0 mm 4 mps 759 mmHg 81%
    01:00 -2°C° 0 mm 4 mps 759 mmHg 84%
    02:00 -2°C° 0 mm 3 mps 759 mmHg 88%
    03:00 -2°C° 0 mm 3 mps 760 mmHg 88%
    04:00 -2°C° 0 mm 3 mps 760 mmHg 88%
    05:00 -2°C° 0 mm 3 mps 760 mmHg 88%
    06:00 -1°C° 0 mm 3 mps 761 mmHg 88%
    07:00 -1°C° 0 mm 2 mps 761 mmHg 87%
    08:00 -1°C° 0 mm 2 mps 761 mmHg 86%
    09:00 +3°C° 0 mm 1 mps 761 mmHg 80%
    10:00 +4°C° 0 mm 1 mps 760 mmHg 74%
    11:00 +4°C° 0 mm 0 mps 760 mmHg 69%
    12:00 +6°C° 0 mm 1 mps 760 mmHg 66%
    13:00 +6°C° 0 mm 2 mps 759 mmHg 63%
    14:00 +7°C° 0 mm 2 mps 759 mmHg 58%
    15:00 +7°C° 0 mm 2 mps 758 mmHg 60%
    16:00 +7°C° 0 mm 2 mps 757 mmHg 62%
    17:00 +6°C° 0 mm 2 mps 756 mmHg 63%
    18:00 +4°C° 0 mm 3 mps 756 mmHg 65%
    19:00 +4°C° 0 mm 3 mps 755 mmHg 66%
    20:00 +3°C° 0 mm 3 mps 755 mmHg 67%
    21:00 +3°C° 0.6 mm 3 mps 754 mmHg 67%
    22:00 +3°C° 0.6 mm 4 mps 753 mmHg 67%
    23:00 +3°C° 0.6 mm 4 mps 753 mmHg 68%

    Tomorrow, 24 March, Sunday

    Time Temperature Precipitation Wind Pressure Humidity
    00:00 +3°C° 0.6 mm 3 mps 752 mmHg 73%
    01:00 +3°C° 0.6 mm 3 mps 751 mmHg 78%
    02:00 +3°C° 0.6 mm 3 mps 751 mmHg 83%
    03:00 +2°C° 0 mm 3 mps 751 mmHg 86%
    04:00 +2°C° 0 mm 3 mps 750 mmHg 90%
    05:00 +1°C° 0 mm 3 mps 750 mmHg 93%
    06:00 +2°C° 0 mm 3 mps 750 mmHg 88%
    07:00 +1°C° 0 mm 4 mps 750 mmHg 84%
    08:00 +1°C° 0 mm 4 mps 750 mmHg 79%
    09:00 +2°C° 0 mm 5 mps 750 mmHg 73%
    10:00 +3°C° 0 mm 5 mps 750 mmHg 66%
    11:00 +4°C° 0 mm 6 mps 750 mmHg 60%
    12:00 +4°C° 0.1 mm 6 mps 750 mmHg 55%
    13:00 +5°C° 0.1 mm 6 mps 750 mmHg 51%
    14:00 +5°C° 0.1 mm 6 mps 750 mmHg 46%
    15:00 +5°C° 0 mm 5 mps 750 mmHg 49%
    16:00 +5°C° 0 mm 4 mps 750 mmHg 51%
    17:00 +4°C° 0 mm 3 mps 750 mmHg 53%
    18:00 +3°C° 0 mm 3 mps 750 mmHg 57%
    19:00 +2°C° 0 mm 3 mps 750 mmHg 61%
    20:00 +1°C° 0 mm 2 mps 750 mmHg 66%
    21:00 +1°C° 0 mm 2 mps 750 mmHg 67%
    22:00 +1°C° 0 mm 2 mps 750 mmHg 68%
    23:00 -1°C° 0 mm 2 mps 750 mmHg 69%

    Day after tomorrow, 25 March, Monday

    Time Temperature Precipitation Wind Pressure Humidity
    00:00 -1°C° 0 mm 3 mps 750 mmHg 69%
    01:00 -1°C° 0 mm 3 mps 750 mmHg 69%
    02:00 -1°C° 0 mm 3 mps 749 mmHg 69%
    03:00 -1°C° 0 mm 3 mps 749 mmHg 70%
    04:00 -2°C° 0 mm 2 mps 749 mmHg 70%
    05:00 -2°C° 0 mm 2 mps 749 mmHg 71%
    06:00 -1°C° 0 mm 3 mps 748 mmHg 68%
    07:00 0°C° 0 mm 3 mps 748 mmHg 65%
    08:00 +1°C° 0 mm 3 mps 748 mmHg 63%
    09:00 +2°C° 0 mm 3 mps 748 mmHg 57%
    10:00 +4°C° 0 mm 3 mps 748 mmHg 51%
    11:00 +5°C° 0 mm 3 mps 748 mmHg 45%
    12:00 +7°C° 0 mm 3 mps 747 mmHg 43%
    13:00 +7°C° 0 mm 3 mps 747 mmHg 41%
    14:00 +8°C° 0 mm 3 mps 747 mmHg 39%
    15:00 +7°C° 0 mm 3 mps 746 mmHg 45%
    16:00 +5°C° 0 mm 3 mps 746 mmHg 52%
    17:00 +6°C° 0 mm 2 mps 746 mmHg 59%
    18:00 +4°C° 0 mm 2 mps 746 mmHg 67%
    19:00 +3°C° 0 mm 2 mps 746 mmHg 76%
    20:00 +2°C° 0 mm 2 mps 746 mmHg 85%
    21:00 +1°C° 0 mm 2 mps 746 mmHg 84%
    22:00 +1°C° 0 mm 2 mps 746 mmHg 84%
    23:00 +1°C° 0 mm 2 mps 746 mmHg 83%

    26 March, Tuesday

    Time Temperature Precipitation Wind Pressure Humidity
    00:00 +1°C° 0.1 mm 2 mps 745 mmHg 85%
    01:00 +1°C° 0.1 mm 2 mps 745 mmHg 86%
    02:00 +1°C° 0.1 mm 2 mps 745 mmHg 87%
    03:00 0°C° 0.2 mm 3 mps 745 mmHg 87%
    04:00 0°C° 0.2 mm 3 mps 745 mmHg 87%
    05:00 -1°C° 0.2 mm 4 mps 745 mmHg 87%
    06:00 -1°C° 0.2 mm 4 mps 745 mmHg 83%
    07:00 -2°C° 0.2 mm 5 mps 746 mmHg 79%
    08:00 -2°C° 0.2 mm 5 mps 746 mmHg 75%
    09:00 -2°C° 0.1 mm 5 mps 747 mmHg 71%
    10:00 -1°C° 0.1 mm 5 mps 747 mmHg 67%
    11:00 -1°C° 0.1 mm 5 mps 747 mmHg 62%
    12:00 0°C° 0 mm 5 mps 748 mmHg 56%
    13:00 0°C° 0 mm 4 mps 748 mmHg 50%
    14:00 +1°C° 0 mm 4 mps 748 mmHg 44%
    15:00 +2°C° 0.1 mm 3 mps 748 mmHg 47%
    16:00 +1°C° 0.1 mm 3 mps 748 mmHg 50%
    17:00 +2°C° 0.1 mm 2 mps 748 mmHg 53%
    18:00 +1°C° 0 mm 2 mps 749 mmHg 58%
    19:00 +1°C° 0 mm 1 mps 749 mmHg 64%
    20:00 -1°C° 0 mm 1 mps 749 mmHg 70%
    21:00 -1°C° 0 mm 1 mps 750 mmHg 72%
    22:00 -3°C° 0 mm 2 mps 750 mmHg 74%
    23:00 -3°C° 0 mm 2 mps 751 mmHg 76%

    27 March, Wednesday

    Time Temperature Precipitation Wind Pressure Humidity
    00:00 -3°C° 0 mm 2 mps 751 mmHg 77%
    01:00 -5°C° 0 mm 3 mps 752 mmHg 77%
    02:00 -5°C° 0 mm 3 mps 752 mmHg 78%
    03:00 -5°C° 0 mm 3 mps 753 mmHg 77%
    04:00 -5°C° 0 mm 3 mps 753 mmHg 76%
    05:00 -5°C° 0 mm 3 mps 754 mmHg 75%
    06:00 -5°C° 0 mm 4 mps 754 mmHg 71%
    07:00 -4°C° 0 mm 4 mps 755 mmHg 68%
    08:00 -4°C° 0 mm 4 mps 755 mmHg 64%
    09:00 -3°C° 0 mm 4 mps 756 mmHg 59%
    10:00 -2°C° 0 mm 4 mps 756 mmHg 53%
    11:00 0°C° 0 mm 4 mps 756 mmHg 48%
    12:00 0°C° 0 mm 4 mps 757 mmHg 45%
    13:00 +1°C° 0 mm 4 mps 757 mmHg 43%
    14:00 +1°C° 0 mm 4 mps 757 mmHg 41%
    15:00 +2°C° 0 mm 3 mps 757 mmHg 43%
    16:00 +3°C° 0 mm 2 mps 758 mmHg 46%
    17:00 +2°C° 0 mm 2 mps 758 mmHg 48%
    18:00 +1°C° 0 mm 2 mps 758 mmHg 53%
    19:00 -1°C° 0 mm 2 mps 758 mmHg 58%
    20:00 -1°C° 0 mm 1 mps 758 mmHg 63%
    21:00 -3°C° 0 mm 2 mps 758 mmHg 65%
    22:00 -3°C° 0 mm 2 mps 758 mmHg 66%
    23:00 -3°C° 0 mm 2 mps 758 mmHg 68%

    28 March, Thursday

    Time Temperature Precipitation Wind Pressure Humidity
    00:00 -2°C° 0 mm 2 mps 758 mmHg 67%
    01:00 -2°C° 0 mm 2 mps 758 mmHg 66%
    02:00 -1°C° 0 mm 3 mps 758 mmHg 65%
    03:00 -1°C° 0 mm 3 mps 758 mmHg 68%
    04:00 -1°C° 0 mm 3 mps 758 mmHg 71%
    05:00 -1°C° 0 mm 3 mps 757 mmHg 74%
    06:00 0°C° 0 mm 3 mps 757 mmHg 75%
    07:00 0°C° 0 mm 3 mps 757 mmHg 77%
    08:00 0°C° 0 mm 4 mps 757 mmHg 78%
    09:00 +1°C° 0 mm 4 mps 757 mmHg 73%
    10:00 +3°C° 0 mm 4 mps 757 mmHg 69%
    11:00 +3°C° 0 mm 5 mps 757 mmHg 64%
    12:00 +5°C° 0 mm 5 mps 756 mmHg 62%
    13:00 +5°C° 0 mm 6 mps 756 mmHg 60%
    14:00 +7°C° 0 mm 6 mps 755 mmHg 58%
    15:00 +6°C° 0 mm 5 mps 755 mmHg 62%
    16:00 +6°C° 0 mm 4 mps 754 mmHg 66%
    17:00 +5°C° 0 mm 4 mps 754 mmHg 70%
    18:00 +5°C° 0 mm 4 mps 754 mmHg 71%
    19:00 +5°C° 0 mm 4 mps 753 mmHg 73%
    20:00 +5°C° 0 mm 5 mps 753 mmHg 74%
    21:00 +3°C° 0 mm 5 mps 753 mmHg 75%
    22:00 +3°C° 0 mm 5 mps 754 mmHg 75%
    23:00 +2°C° 0 mm 5 mps 754 mmHg 76%
    Show more